Location: Enikep?du
(16.5133°N, 80.7066°E)
Time: 07:54:08
(UTC+00:00)

Daily predictions for brighter satellites

Satellite Brightness Start Highest point End
(mag) Time Altitude Azimuth Time Altitude Azimuth Time Altitude Azimuth
Cosmos 1452 Rocket 3.7 13:13:59 10° S 13:19:01 51° ESE 13:24:03 10° NNE
Cosmos 407 Rocket 3.9 13:16:55 10° NNW 13:22:00 68° WSW 13:27:07 10° S
COBE Rocket 4.0 13:17:39 10° N 13:22:40 88° W 13:27:33 10° SSW
Delta 202 4.0 13:19:20 10° W 13:24:39 53° SSW 13:29:54 10° ESE
Cosmos 1461 4.0 13:23:14 10° SSE 13:25:42 17° ESE 13:28:11 10° ENE
CZ-3 Stage 3 2.9 13:11:16 10° WSW 13:26:12 87° NNW 13:30:28 10° ENE
Okean 1 Rocket 3.9 13:22:45 10° SSE 13:26:33 30° E 13:30:21 10° NNE
Cosmos 1975 Rocket 2.9 13:22:35 10° N 13:26:51 75° E 13:31:06 10° S
IRS-P3 4.2 13:22:15 10° SSE 13:27:33 87° WSW 13:32:51 10° NNW
ARIANE 6 FM1 Upper Stage 2.6 13:26:20 10° NNW 13:30:18 80° WSW 13:34:19 10° SSE
Cosmos 2251 Rocket 3.7 13:26:57 10° N 13:32:11 56° ENE 13:37:22 10° SSE
Meteor 2-1 Rocket 4.3 13:31:42 10° S 13:37:19 57° E 13:42:48 10° NNE
Cosmos 2173 Rocket 4.3 13:34:23 10° SSE 13:40:07 44° E 13:45:54 10° NNE
H-10 deb 3.7 13:32:19 10° W 13:41:44 31° SSW 13:44:36 12° SE
Cosmos 1862 3.5 13:39:36 10° NNW 13:43:04 61° W 13:46:34 10° S
SPOT 5 4.2 13:42:57 13° ESE 13:44:44 17° ENE 13:47:27 10° NE
SJ-6B 3.3 13:43:02 12° SE 13:45:46 31° ENE 13:48:52 10° NNE
Cosmos 2082 Rocket 2.1 13:42:01 10° S 13:47:41 73° ESE 13:53:22 10° NNE
YAOGAN 3 4.4 13:44:50 10° SSE 13:48:58 67° ENE 13:53:08 10° N
SAR-Lupe-1 4.0 13:52:54 10° S 13:56:26 84° WSW 13:59:58 10° NNW
PSLV R/B 3.4 13:58:42 10° SSE 14:02:50 88° WSW 14:06:58 10° NNW
Cosmos 332 Rocket 3.7 14:00:24 10° N 14:05:05 65° ENE 14:08:26 19° SSE
Helios 1A Rocket 3.7 14:04:23 10° NE 14:05:58 22° ENE 14:05:58 22° ENE
ASTEX 1 3.7 14:07:21 21° SE 14:10:20 45° E 14:15:01 10° N
ATLAS 3B R/B 3.7 14:04:27 10° N 14:10:50 31° ENE 14:13:45 23° E
Cosmos 1697 Rocket 2.9 14:09:31 10° N 14:14:56 49° ENE 14:17:27 29° SE
Meteor 1-27 4.2 14:12:04 10° S 14:17:43 65° E 14:23:15 10° NNE
Cosmos 1459 Rocket 4.0 14:12:19 10° S 14:18:36 82° W 14:24:48 10° N
Delta 2 Rocket 4.4 14:13:21 10° WNW 14:19:39 61° NNE 14:23:53 26° E
Sich 1 Rocket 4.3 14:16:39 10° SSW 14:20:54 53° W 14:25:08 10° N
BREEZE-M DEB (TANK) 2.2 14:18:20 10° NW 14:21:08 81° W 14:21:08 81° W
ERS-1 Rocket 4.3 14:24:44 22° ENE 14:24:44 22° ENE 14:28:02 10° NNE
Cosmos 1375 Rocket 4.4 14:17:57 10° SSW 14:24:17 77° ESE 14:30:44 10° NNE
Cosmos 1802 Rocket 3.9 14:21:16 10° S 14:27:30 84° E 14:33:40 10° N
SWIFT 2.6 14:25:58 10° WNW 14:28:53 37° N 14:29:03 36° N
GPS 2-15 Rocket1 3.1 14:24:58 10° WSW 14:29:43 63° SSE 14:30:38 51° ESE
COSMOS 2406 3.1 14:25:13 10° S 14:30:56 78° ESE 14:36:40 10° NNE
ATLAS 2A CENTAUR R/B 4.3 14:25:41 10° SW 14:31:37 59° SE 14:46:14 10° ENE
GPS 2-12 Rocket1 4.3 14:29:05 10° WSW 14:32:41 25° SSW 14:33:02 25° SSW
Delta 198 4.2 14:27:11 10° WSW 14:33:29 70° SSE 14:35:42 39° E
CSL-04 Rocket 3.6 14:32:04 37° SE 14:34:12 66° ENE 14:39:37 10° N
Resurs 01 Rocket 4.0 14:31:25 10° SSW 14:34:42 21° W 14:37:59 10° NW
Cosmos 1782 2.6 14:38:11 70° NNW 14:38:11 70° NNW 14:41:21 10° N
Cosmos 1536 Rocket 3.9 14:35:13 10° NNW 14:39:33 62° W 14:41:33 30° SSW
Cosmos 1992 Rocket 4.2 14:36:18 10° SSW 14:41:28 71° WNW 14:46:39 10° N
SL-4 R/B 2.1 14:40:03 10° NNW 14:43:23 62° N 14:43:23 62° N
Cosmos 1980 Rocket 2.9 14:41:04 10° N 14:45:51 36° ENE 14:45:51 36° ENE
Terra 3.1 14:49:55 27° NE 14:49:55 27° NE 14:52:34 10° N
Cosmos 2228 2.9 14:48:38 76° NNW 14:48:38 76° NNW 14:52:29 10° N
CZ-4B R/B 4.4 14:51:39 53° N 14:51:39 53° N 14:54:46 10° N
Cosmos 1455 Rocket 4.2 14:46:41 10° SSW 14:50:50 41° W 14:54:59 10° NNW
CZ-4 R/B 2.6 14:52:59 31° N 14:52:59 31° N 14:54:58 10° N
SEDSat Delta rocket 4.0 14:45:09 10° WSW 14:51:39 75° NNW 14:55:19 28° NE
Cosmos 2233 Rocket 3.8 14:48:48 33° S 14:51:47 81° E 14:57:57 10° N
CZ-4B DEB 4.2 14:55:43 62° ENE 14:55:43 62° ENE 15:01:04 10° N
Cosmos 968 Rocket 3.8 14:50:42 10° NNW 14:55:50 61° WSW 14:57:08 46° SSW
CZ-4B R/B 3.9 14:59:47 40° NE 14:59:47 40° NE 15:04:06 10° N
SL-08 R/B 3.3 14:55:43 10° N 15:00:07 75° NNW 15:00:07 75° NNW
Milstar 3 3.6 14:58:43 10° NW 15:05:08 46° NNE 15:08:08 34° ENE
USA 215 3.1 15:07:42 67° E 15:08:27 74° NE 15:14:56 10° NNW
Longmarch 3A Rocket 4.1 15:03:52 10° WNW 15:09:30 21° NNW 15:10:37 18° N
ARIANE 5 R/B 4.2 14:47:51 10° W 15:15:57 41° SSW 15:16:34 41° S
Cosmos 1741 Rocket 4.5 15:15:01 10° NNW 15:19:34 58° WNW 15:19:34 58° WNW
Aureole 3 Rocket 4.3 15:19:55 58° SSW 15:21:20 77° W 15:29:41 10° N
Feng Yun 1-1 Rocket 4.5 15:22:28 62° NW 15:22:28 62° NW 15:27:07 10° NNW
ATLAS CENTAUR Rocket 3.1 15:26:46 10° WNW 15:29:01 37° W 15:29:01 37° W
ATLAS 3B R/B 4.0 15:55:01 10° NW 16:01:01 33° WSW 16:01:01 33° WSW
Atlas Centaur 2 4.4 20:33:35 26° N 20:33:35 26° N 20:39:05 10° NE
CZ-2D R/B 4.4 20:47:46 10° NNE 20:49:36 21° NE 20:49:36 21° NE
ATLAS 2AS CENTAUR R/B 4.2 21:14:42 10° N 21:20:39 32° ENE 21:26:39 10° ESE
ADEOS II 3.4 21:29:04 10° NNE 21:31:56 34° N 21:31:56 34° N
Centaur D AC-25 4.0 21:46:53 26° ESE 21:46:53 26° ESE 21:48:43 10° E
Resurs 1-4 Rocket 4.0 21:44:16 10° N 21:46:01 19° NNW 21:46:01 19° NNW
Cosmos 2344 4.4 21:57:30 36° WNW 21:57:42 36° WNW 22:04:34 10° N
SEDSat Delta rocket 3.8 21:58:53 55° N 21:59:21 57° NNE 22:04:05 10° ESE
Cosmos 2154 Rocket 3.8 21:55:57 10° N 22:02:08 77° W 22:02:30 74° SW
Cosmos 2074 Rocket 4.0 21:56:56 10° NNW 22:02:32 61° WNW 22:02:32 61° WNW
USA 267 4.2 21:58:49 10° ENE 22:04:51 40° SE 22:07:45 27° S
OAO 3 Rocket 3.9 22:07:47 43° SE 22:07:47 43° SE 22:12:03 10° ENE
Cosmos 1943 Rocket 2.8 22:06:45 35° SSE 22:08:46 51° ESE 22:14:13 10° NNE
Cosmos 1241 Rocket 4.3 22:09:25 66° WSW 22:10:12 76° WNW 22:16:22 10° NNE
Cosmos 2184 Rocket 4.0 22:04:26 10° NNW 22:10:05 55° WNW 22:10:05 55° WNW
USA 281 3.1 22:07:17 10° SSE 22:13:51 87° ENE 22:20:26 10° NNW
Spot 2 4.3 22:13:36 58° SSE 22:14:37 89° NE 22:19:32 10° NNW
ARIANE 5 R/B 3.9 22:17:40 11° SE 22:17:40 11° SE 22:17:48 10° SE
Cosmos 1603 3.7 22:10:12 10° NNW 22:15:56 80° ENE 22:21:37 10° SSE
H-2A R/B 3.7 22:15:23 10° NNW 22:17:57 20° NW 22:17:57 20° NW
Atlas Centaur 2 4.3 22:16:11 10° NW 22:22:54 33° NNE 22:30:06 10° ENE
GPS 2-17 Rocket1 2.9 22:23:15 75° WNW 22:23:38 87° NNE 22:28:14 10° ESE
CZ-2D R/B 4.3 22:30:05 10° NW 22:30:51 12° NW 22:30:51 12° NW
H-2A R/B 1.8 22:29:41 10° N 22:33:40 70° WNW 22:34:05 63° WSW
Cosmos 1610 Rocket 4.5 22:28:23 10° NNW 22:34:29 60° W 22:38:58 19° SSW
Cosmos 1900 4.3 22:31:11 10° NNW 22:35:55 56° WSW 22:40:42 10° S
Cosmos 1400 Rocket 2.9 22:34:04 10° NNW 22:37:12 50° WNW 22:37:12 50° WNW
Cosmos 2181 Rocket 3.9 22:32:30 14° S 22:37:55 85° E 22:44:02 10° N
GOES 2 Rocket 3.7 22:36:03 37° W 22:38:17 64° NNW 22:43:04 10° ENE
CZ-3 R/B 3.4 22:04:22 10° WNW 22:38:49 77° SSW 22:47:20 10° SE
Meteor 2-13 Rocket 4.4 22:37:13 28° SSW 22:40:26 61° W 22:46:30 10° N
Cosmos 2278 Rocket 2.2 22:38:44 23° SSW 22:42:19 86° ESE 22:47:59 10° NNE
Cosmos 1680 Rocket 4.1 22:43:14 34° W 22:44:01 36° WNW 22:48:46 10° N
Cosmos 962 Rocket 4.4 22:42:03 10° N 22:48:17 77° W 22:54:37 10° S
SL-24 R/B 4.3 22:46:57 10° N 22:50:53 48° WNW 22:52:43 30° SW
Meteosat 1 Rocket2 3.6 22:43:51 10° WNW 22:51:07 89° SW 22:55:52 10° ESE
SL-16 R/B 2.8 22:45:47 10° SSE 22:52:00 72° ENE 22:58:13 10° N
OAO 3 Copernicus 4.2 22:49:48 32° SW 22:52:05 82° SE 22:57:05 10° ENE
USA 238 DEB 3.4 22:48:14 17° SSW 22:52:45 77° ESE 22:58:48 10° NNE
USA 238 3.4 22:48:22 17° SSW 22:52:57 75° ESE 22:59:00 10° NNE
SL-24 DEB 4.0 22:48:54 10° S 22:53:25 78° W 22:57:54 10° N
Meteor 2-5 Rocket 3.7 22:50:54 18° SSW 22:54:59 61° W 23:00:25 10° N
ARGOS 4.3 22:54:37 10° NNW 22:58:41 23° WNW 22:59:52 21° W
Cosmos 1703 Rocket 3.5 22:54:24 10° S 22:58:41 81° E 23:02:59 10° N
Meteor 2-15 4.4 22:54:58 10° N 23:01:06 89° WSW 23:07:11 10° S
Cosmos 1867 4.1 22:56:33 10° NW 23:01:28 35° WSW 23:06:21 10° S
USA 59 Rocket 0.7 22:56:06 10° SSW 23:01:52 61° ESE 23:05:57 10° NE
Cosmos 1939 Rocket 2.6 23:05:18 10° N 23:09:05 85° WNW 23:12:51 10° SSW
CZ-2C R/B 2.6 23:05:38 10° N 23:09:55 43° WNW 23:13:34 14° SW
ATLAS 2AS CENTAUR R/B 3.4 23:05:29 10° NW 23:11:16 30° WSW 23:17:09 10° S
CZ-4C R/B 3.4 23:03:16 10° NNW 23:11:46 88° ENE 23:21:06 10° SSE
Meteor 1-24 Rocket 4.4 23:08:45 18° SW 23:11:58 32° W 23:16:49 10° NNW
Cosmos 2228 Rocket 4.2 23:10:26 20° WSW 23:12:05 25° W 23:15:44 10° NNW
deb Centaur AC-2 4.1 23:10:36 20° SW 23:13:35 76° SSE 23:18:28 10° ENE
Exosat Rocket 4.2 23:11:19 16° SW 23:15:01 35° WNW 23:19:34 10° N
Cosmos 1048 Rocket 4.2 23:14:10 11° SSW 23:18:46 48° WNW 23:23:40 10° N
NOSS 2-1 (C) 4.2 23:14:36 10° SSW 23:20:38 69° ESE 23:24:51 10° NNE
Meteor 2-15 Rocket 4.4 23:16:20 10° N 23:22:29 85° W 23:28:35 10° S
Cosmos 2341 Rocket 4.2 23:17:24 10° NNW 23:23:25 48° W 23:29:23 10° SSW
Cosmos 1869 4.5 23:25:11 10° NNE 23:28:23 39° E 23:31:35 10° SSE
SL-8 Rocket 4.4 23:23:56 10° NNW 23:29:35 39° W 23:35:14 10° SSW
Nadezhda 3 Rocket 4.0 23:26:04 10° SSW 23:32:09 61° W 23:38:12 10° N
Cosmos 2218 Rocket 4.3 23:27:46 10° NNW 23:33:49 46° W 23:39:51 10° SSW
Centaur AC-125 4.3 23:38:44 10° NW 23:40:02 12° N 23:41:08 10° NNE
SEDSat Delta rocket 4.1 23:40:40 10° W 23:44:54 28° SW 23:48:44 10° SSE
Cosmos 1833 Rocket 2.7 23:41:35 10° NNW 23:47:11 72° WSW 23:52:46 10° S
USA 267 4.1 23:41:49 10° NNE 23:47:37 35° NW 23:53:25 10° WSW
